Find Starlink 31951

NORAD ID: 59890 Int'l Des: 2024-100 Owner: SPXS Country: US Constellation: starlink operational
LEOCIRCULAR

当前视图

正在加载3D地球...

About Starlink 31951

Starlink 31951 (NORAD 59890) is a starlink constellation satellite (v2 mini) launched May 28, 2024 by SPXS of US. It operates in LEO, CIRCULAR orbit with a mass of 730.00 kg.

即将过境

Passes for default location (London). Set your location on the main map for personalized predictions.

高度历史

Loading altitude history...

两行轨道根数

1 59890U 24100F 26237.02308185 -.00006207 00000-0 -21679-3 0 9990
2 59890 42.9977 254.5289 0001102 194.7878 165.2942 15.27497049126808
Epoch: Aug 25, 2026 • Age: 14 hours

当前状态

高度 489.3 km
远地点 / 近地点 N/A
速度 7.62 km/s
星下点 -23.23°S, 32.26°E
发射日期 May 28, 2024
运行时间 2.2 years
类型 internet

技术详情

分类 Payload
质量 730.00 kg
干质量 700.00 kg
总质量 730.00 kg
长度 0.30 m
直径 4.10 m
跨度 29.00 m
形状 Box + pan
制造商 SPXS
平台类型 Starlink V2M
阶段状态 In Orbit
所有者/国家 SPXS/US

Most Searched